This is the latest recevied weather packets stored in our database for station/object KD9JJA. If no packets are shown the sender has not sent any weather packets the latest 1 day(s).
| Time | Temp. | Humidity | Pressure | Rain* | Wind** | Luminosity | Snow |
|---|---|---|---|---|---|---|---|
| 1778035827 | 8.89° C | 99% | 1010.5 hPa | 10.67 mm | - | 0 W/m² | - |
| 1778034917 | 8.89° C | 99% | 1010 hPa | 7.87 mm | - | 0 W/m² | - |
| 1778034615 | 8.89° C | 99% | 1010.3 hPa | 7.11 mm | - | 0 W/m² | - |
| 1778034312 | 8.89° C | 99% | 1010.2 hPa | 6.6 mm | - | 0 W/m² | - |
| 1778033707 | 8.89° C | 99% | 1010.4 hPa | 1.27 mm | - | 0 W/m² | - |
| 1778032798 | 9.44° C | 99% | 1009.9 hPa | 8.89 mm | - | 0 W/m² | - |
| 1778031889 | 9.44° C | 99% | 1009.5 hPa | 3.56 mm | - | 0 W/m² | - |
| 1778031284 | 9.44° C | 99% | 1009.6 hPa | 0 mm | - | 0 W/m² | - |
| 1778030676 | 9.44° C | 99% | 1009.4 hPa | 1.27 mm | - | 0 W/m² | - |
| 1778030071 | 9.44° C | 99% | 1009.7 hPa | 1.78 mm | - | 0 W/m² | - |
| 1778029767 | 8.89° C | 99% | 1009.9 hPa | 1.78 mm | - | 0 W/m² | - |
| 1778029161 | 9.44° C | 99% | 1009.9 hPa | 1.27 mm | - | 0 W/m² | - |
| 1778028860 | 9.44° C | 99% | 1010.2 hPa | 4.32 mm | - | 0 W/m² | - |
| 1778028555 | 9.44° C | 99% | 1009.8 hPa | 7.87 mm | - | 0 W/m² | - |
| 1778027949 | 9.44° C | 99% | 1009.6 hPa | 6.1 mm | - | 0 W/m² | - |
| 1778027038 | 9.44° C | 99% | 1010.1 hPa | 7.11 mm | - | 0 W/m² | - |
| 1778026734 | 9.44° C | 99% | 1009.8 hPa | 3.05 mm | - | 0 W/m² | - |
| 1778026128 | 9.44° C | 99% | 1010.2 hPa | 0 mm | - | 0 W/m² | - |
| 1778025826 | 9.44° C | 99% | 1009.5 hPa | 0 mm | - | 0 W/m² | - |
| 1778021884 | 10° C | 99% | 1010.1 hPa | 0 mm | - | 4 W/m² | - |
| 1778019154 | 11.67° C | 99% | 1009.6 hPa | 0 mm | - | 8 W/m² | - |
| 1778017036 | 15.56° C | 99% | 1008.9 hPa | 0 mm | - | 2 W/m² | - |
| 1778015211 | 15.56° C | 99% | 1008.6 hPa | 0 mm | - | 11 W/m² | - |
| 1778014908 | 15.56° C | 99% | 1008.6 hPa | 0 mm | - | 17 W/m² | - |
| 1778012477 | 16.11° C | 99% | 1009.1 hPa | 0 mm | - | 10 W/m² | - |
* Rain latest hour (hover to see other rain measurements)
** Current wind speed in m/s (hover to see current wind gust speed)